Time,TemperatureF,DewpointF,PressureIn,WindDirection,WindDirectionDegrees,WindSpeedMPH,WindSpeedGustMPH,Humidity,HourlyPrecipIn,Conditions,Clouds,dailyrainin,SolarRadiationWatts/m^2,SoftwareType,DateUTC
2013-01-14 00:05:00,11.3,1.5,30.31,NNW,339,8.0,8.0,64,0.00,,,0.00,0,Wunderground v.1.15,2013-01-14 07:05:00,
2013-01-14 00:11:00,11.3,1.5,30.31,NNW,336,10.0,10.0,64,0.00,,,0.00,0,Wunderground v.1.15,2013-01-14 07:11:00,
2013-01-14 00:17:00,11.1,1.3,30.31,NNW,346,7.0,10.0,64,0.00,,,0.00,0,Wunderground v.1.15,2013-01-14 07:17:00,
2013-01-14 00:23:00,10.9,1.1,30.30,NNW,342,6.0,10.0,64,0.00,,,0.00,0,Wunderground v.1.15,2013-01-14 07:23:00,
2013-01-14 00:28:00,10.8,1.0,30.30,NNW,334,6.0,12.0,64,0.00,,,0.00,0,Wunderground v.1.15,2013-01-14 07:28:00,
2013-01-14 00:33:00,10.6,1.1,30.30,NNW,342,5.0,9.0,65,0.00,,,0.00,0,Wunderground v.1.15,2013-01-14 07:33:00,
2013-01-14 00:38:00,10.6,1.5,30.30,NNW,346,5.0,9.0,66,0.00,,,0.00,0,Wunderground v.1.15,2013-01-14 07:38:00,
2013-01-14 00:44:00,10.4,1.3,30.30,NNW,337,4.0,10.0,66,0.00,,,0.00,0,Wunderground v.1.15,2013-01-14 07:44:00,
2013-01-14 00:49:00,10.2,1.4,30.30,North,350,4.0,10.0,67,0.00,,,0.00,0,Wunderground v.1.15,2013-01-14 07:49:00,
2013-01-14 00:55:00,9.9,1.1,30.30,North,360,2.0,8.0,67,0.00,,,0.00,0,Wunderground v.1.15,2013-01-14 07:55:00,
2013-01-14 01:00:00,9.6,1.2,30.30,North,360,3.0,4.0,68,0.00,,,0.00,0,Wunderground v.1.15,2013-01-14 08:00:00,
2013-01-14 01:05:00,9.5,1.4,30.30,North,350,4.0,6.0,69,0.00,,,0.00,0,Wunderground v.1.15,2013-01-14 08:05:00,
2013-01-14 01:11:00,9.4,1.3,30.30,NNW,345,8.0,8.0,69,0.00,,,0.00,0,Wunderground v.1.15,2013-01-14 08:11:00,
2013-01-14 01:16:00,9.2,1.1,30.30,NNW,348,4.0,8.0,69,0.00,,,0.00,0,Wunderground v.1.15,2013-01-14 08:16:00,
2013-01-14 01:21:00,9.1,1.3,30.30,NNW,344,9.0,9.0,70,0.00,,,0.00,0,Wunderground v.1.15,2013-01-14 08:21:00,
2013-01-14 01:26:00,9.2,1.7,30.30,NNW,341,8.0,10.0,71,0.00,,,0.00,0,Wunderground v.1.15,2013-01-14 08:26:00,
2013-01-14 01:31:00,9.0,1.5,30.29,North,360,5.0,7.0,71,0.00,,,0.00,0,Wunderground v.1.15,2013-01-14 08:31:00,
2013-01-14 01:37:00,8.7,1.2,30.30,North,360,0.0,7.0,71,0.00,,,0.00,0,Wunderground v.1.15,2013-01-14 08:37:00,
2013-01-14 01:42:00,8.5,1.0,30.30,North,360,2.0,3.0,71,0.00,,,0.00,0,Wunderground v.1.15,2013-01-14 08:42:00,
2013-01-14 01:48:00,8.5,1.3,30.30,North,360,2.0,6.0,72,0.00,,,0.00,0,Wunderground v.1.15,2013-01-14 08:48:00,
2013-01-14 01:54:00,8.5,1.3,30.30,North,355,6.0,6.0,72,0.00,,,0.00,0,Wunderground v.1.15,2013-01-14 08:54:00,
2013-01-14 01:59:00,9.1,2.2,30.30,NNW,342,9.0,9.0,73,0.00,,,0.00,0,Wunderground v.1.15,2013-01-14 08:59:00,
2013-01-14 02:04:00,9.9,3.0,30.30,NNW,342,5.0,11.0,73,0.00,,,0.00,0,Wunderground v.1.15,2013-01-14 09:04:00,
2013-01-14 02:09:00,10.1,2.9,30.30,NNW,335,11.0,11.0,72,0.00,,,0.00,0,Wunderground v.1.15,2013-01-14 09:09:00,
2013-01-14 02:14:00,10.4,3.2,30.30,NNW,341,9.0,10.0,72,0.00,,,0.00,0,Wunderground v.1.15,2013-01-14 09:14:00,
2013-01-14 02:19:00,10.5,3.3,30.31,NNW,329,7.0,11.0,72,0.00,,,0.00,0,Wunderground v.1.15,2013-01-14 09:19:00,
2013-01-14 02:24:00,10.6,3.3,30.30,NNW,342,9.0,11.0,72,0.00,,,0.00,0,Wunderground v.1.15,2013-01-14 09:24:00,
2013-01-14 02:29:00,10.8,3.5,30.30,NNW,341,5.0,11.0,72,0.00,,,0.00,0,Wunderground v.1.15,2013-01-14 09:29:00,
2013-01-14 02:34:00,10.9,3.6,30.31,NNW,338,7.0,10.0,72,0.00,,,0.00,0,Wunderground v.1.15,2013-01-14 09:34:00,
2013-01-14 02:39:00,11.0,3.7,30.31,NNW,336,5.0,11.0,72,0.00,,,0.00,0,Wunderground v.1.15,2013-01-14 09:39:00,
2013-01-14 02:44:00,11.1,4.1,30.31,NNW,346,11.0,14.0,73,0.00,,,0.00,0,Wunderground v.1.15,2013-01-14 09:44:00,
2013-01-14 02:49:00,11.0,4.3,30.31,NNW,344,6.0,14.0,74,0.00,,,0.00,0,Wunderground v.1.15,2013-01-14 09:49:00,
2013-01-14 02:54:00,11.0,4.6,30.31,NNW,333,10.0,12.0,75,0.00,,,0.00,0,Wunderground v.1.15,2013-01-14 09:54:00,
2013-01-14 02:59:00,10.9,4.5,30.30,North,350,9.0,12.0,75,0.00,,,0.00,0,Wunderground v.1.15,2013-01-14 09:59:00,
2013-01-14 03:04:00,10.9,4.8,30.31,North,351,10.0,13.0,76,0.00,,,0.00,0,Wunderground v.1.15,2013-01-14 10:04:00,
2013-01-14 03:09:00,10.9,4.8,30.30,NNW,342,10.0,13.0,76,0.00,,,0.00,0,Wunderground v.1.15,2013-01-14 10:09:00,
2013-01-14 03:14:00,10.9,4.8,30.30,NNW,340,10.0,14.0,76,0.00,,,0.00,0,Wunderground v.1.15,2013-01-14 10:14:00,
2013-01-14 03:19:00,10.9,4.8,30.30,NNW,341,10.0,15.0,76,0.00,,,0.00,0,Wunderground v.1.15,2013-01-14 10:19:00,
2013-01-14 03:24:00,10.9,4.8,30.30,NNW,348,11.0,14.0,76,0.00,,,0.00,0,Wunderground v.1.15,2013-01-14 10:24:00,
2013-01-14 03:29:00,10.9,4.8,30.30,NNW,336,7.0,14.0,76,0.00,,,0.00,0,Wunderground v.1.15,2013-01-14 10:29:00,
2013-01-14 03:34:00,10.8,4.7,30.30,NNW,345,13.0,14.0,76,0.00,,,0.00,0,Wunderground v.1.15,2013-01-14 10:34:00,
2013-01-14 03:39:00,10.8,4.7,30.30,NNW,347,11.0,14.0,76,0.00,,,0.00,0,Wunderground v.1.15,2013-01-14 10:39:00,
2013-01-14 03:44:00,10.7,4.6,30.30,NNW,342,6.0,12.0,76,0.00,,,0.00,0,Wunderground v.1.15,2013-01-14 10:44:00,
2013-01-14 03:49:00,10.6,4.5,30.29,North,355,9.0,14.0,76,0.00,,,0.00,0,Wunderground v.1.15,2013-01-14 10:49:00,
2013-01-14 03:54:00,10.5,4.4,30.29,NNW,346,4.0,13.0,76,0.00,,,0.00,0,Wunderground v.1.15,2013-01-14 10:54:00,
2013-01-14 03:59:00,10.4,4.3,30.29,North,355,4.0,13.0,76,0.00,,,0.00,0,Wunderground v.1.15,2013-01-14 10:59:00,
2013-01-14 04:04:00,10.3,4.2,30.29,North,355,11.0,12.0,76,0.00,,,0.00,0,Wunderground v.1.15,2013-01-14 11:04:00,
2013-01-14 04:09:00,10.2,4.1,30.28,NNW,342,6.0,12.0,76,0.00,,,0.00,0,Wunderground v.1.15,2013-01-14 11:09:00,
2013-01-14 04:14:00,10.1,4.0,30.28,North,360,7.0,13.0,76,0.00,,,0.00,0,Wunderground v.1.15,2013-01-14 11:14:00,
2013-01-14 04:19:00,10.0,3.9,30.28,NNW,346,8.0,13.0,76,0.00,,,0.00,0,Wunderground v.1.15,2013-01-14 11:19:00,
2013-01-14 04:24:00,9.9,3.8,30.28,NNW,338,4.0,9.0,76,0.00,,,0.00,0,Wunderground v.1.15,2013-01-14 11:24:00,
2013-01-14 04:29:00,9.9,4.1,30.28,NNW,341,9.0,11.0,77,0.00,,,0.00,0,Wunderground v.1.15,2013-01-14 11:29:00,
2013-01-14 04:34:00,9.8,4.0,30.27,NNW,348,9.0,9.0,77,0.00,,,0.00,0,Wunderground v.1.15,2013-01-14 11:34:00,
2013-01-14 04:39:00,9.6,3.8,30.27,North,350,6.0,11.0,77,0.00,,,0.00,0,Wunderground v.1.15,2013-01-14 11:39:00,
2013-01-14 04:44:00,9.4,3.6,30.27,North,355,6.0,7.0,77,0.00,,,0.00,0,Wunderground v.1.15,2013-01-14 11:44:00,
2013-01-14 04:49:00,9.3,3.5,30.27,NNW,338,8.0,8.0,77,0.00,,,0.00,0,Wunderground v.1.15,2013-01-14 11:49:00,
2013-01-14 04:54:00,9.1,3.4,30.27,NNW,335,6.0,11.0,77,0.00,,,0.00,0,Wunderground v.1.15,2013-01-14 11:54:00,
2013-01-14 04:59:00,9.1,3.4,30.27,NNW,346,10.0,11.0,77,0.00,,,0.00,0,Wunderground v.1.15,2013-01-14 11:59:00,
2013-01-14 05:04:00,9.0,3.3,30.27,NNW,340,7.0,11.0,77,0.00,,,0.00,0,Wunderground v.1.15,2013-01-14 12:04:00,
2013-01-14 05:09:00,8.9,3.2,30.27,NNW,342,6.0,11.0,77,0.00,,,0.00,0,Wunderground v.1.15,2013-01-14 12:09:00,
2013-01-14 05:14:00,8.8,3.1,30.27,NNW,346,9.0,12.0,77,0.00,,,0.00,0,Wunderground v.1.15,2013-01-14 12:14:00,
2013-01-14 05:19:00,8.8,3.1,30.27,NNW,338,5.0,12.0,77,0.00,,,0.00,0,Wunderground v.1.15,2013-01-14 12:19:00,
2013-01-14 05:25:00,8.6,2.9,30.27,NNW,348,6.0,10.0,77,0.00,,,0.00,0,Wunderground v.1.15,2013-01-14 12:25:00,
2013-01-14 05:30:00,8.6,2.6,30.27,NNW,340,10.0,10.0,76,0.00,,,0.00,0,Wunderground v.1.15,2013-01-14 12:30:00,
2013-01-14 05:35:00,8.6,2.6,30.27,North,360,4.0,12.0,76,0.00,,,0.00,0,Wunderground v.1.15,2013-01-14 12:35:00,
2013-01-14 05:40:00,8.5,2.5,30.27,NNW,346,6.0,7.0,76,0.00,,,0.00,0,Wunderground v.1.15,2013-01-14 12:40:00,
2013-01-14 05:45:00,8.5,2.5,30.27,North,351,6.0,10.0,76,0.00,,,0.00,0,Wunderground v.1.15,2013-01-14 12:45:00,
2013-01-14 05:50:00,8.5,2.5,30.27,NNW,348,6.0,7.0,76,0.00,,,0.00,0,Wunderground v.1.15,2013-01-14 12:50:00,
2013-01-14 05:55:00,8.5,2.5,30.28,North,350,4.0,9.0,76,0.00,,,0.00,0,Wunderground v.1.15,2013-01-14 12:55:00,
2013-01-14 06:00:00,8.5,2.5,30.27,North,350,3.0,5.0,76,0.00,,,0.00,0,Wunderground v.1.15,2013-01-14 13:00:00,
2013-01-14 06:05:00,8.5,2.5,30.27,North,350,5.0,11.0,76,0.00,,,0.00,0,Wunderground v.1.15,2013-01-14 13:05:00,
2013-01-14 06:10:00,8.5,2.5,30.28,NNW,338,9.0,9.0,76,0.00,,,0.00,0,Wunderground v.1.15,2013-01-14 13:10:00,
2013-01-14 06:15:00,8.6,2.6,30.28,NW,318,10.0,14.0,76,0.00,,,0.00,0,Wunderground v.1.15,2013-01-14 13:15:00,
2013-01-14 06:20:00,8.6,2.6,30.28,NNW,343,9.0,11.0,76,0.00,,,0.00,0,Wunderground v.1.15,2013-01-14 13:20:00,
2013-01-14 06:25:00,8.6,2.6,30.27,NNW,344,12.0,13.0,76,0.00,,,0.00,0,Wunderground v.1.15,2013-01-14 13:25:00,
2013-01-14 06:30:00,8.5,2.2,30.27,NNW,329,12.0,12.0,75,0.00,,,0.00,0,Wunderground v.1.15,2013-01-14 13:30:00,
2013-01-14 06:35:00,8.4,2.1,30.28,NNW,348,6.0,13.0,75,0.00,,,0.00,0,Wunderground v.1.15,2013-01-14 13:35:00,
2013-01-14 06:40:00,8.2,1.9,30.28,NNW,348,6.0,9.0,75,0.00,,,0.00,0,Wunderground v.1.15,2013-01-14 13:40:00,
2013-01-14 06:45:00,8.1,1.8,30.28,North,350,6.0,13.0,75,0.00,,,0.00,0,Wunderground v.1.15,2013-01-14 13:45:00,
2013-01-14 06:50:00,7.8,1.5,30.28,NNW,342,5.0,8.0,75,0.00,,,0.00,0,Wunderground v.1.15,2013-01-14 13:50:00,
2013-01-14 06:55:00,7.6,1.3,30.28,NNW,331,6.0,10.0,75,0.00,,,0.00,0,Wunderground v.1.15,2013-01-14 13:55:00,
2013-01-14 07:00:00,7.4,1.1,30.29,NNW,327,9.0,10.0,75,0.00,,,0.00,0,Wunderground v.1.15,2013-01-14 14:00:00,
2013-01-14 07:05:00,7.5,1.2,30.29,NNW,340,11.0,15.0,75,0.00,,,0.00,0,Wunderground v.1.15,2013-01-14 14:05:00,
2013-01-14 07:10:00,7.4,1.1,30.29,NNW,337,9.0,10.0,75,0.00,,,0.00,0,Wunderground v.1.15,2013-01-14 14:10:00,
2013-01-14 07:15:00,7.4,1.1,30.29,NNW,346,12.0,15.0,75,0.00,,,0.00,0,Wunderground v.1.15,2013-01-14 14:15:00,
2013-01-14 07:20:00,7.4,1.1,30.29,NNW,347,11.0,14.0,75,0.00,,,0.00,0,Wunderground v.1.15,2013-01-14 14:20:00,
2013-01-14 07:25:00,7.3,1.0,30.29,NNW,334,10.0,14.0,75,0.00,,,0.00,0,Wunderground v.1.15,2013-01-14 14:25:00,
2013-01-14 07:30:00,7.4,1.1,30.29,North,355,9.0,12.0,75,0.00,,,0.00,0,Wunderground v.1.15,2013-01-14 14:30:00,
2013-01-14 07:35:00,7.6,1.3,30.29,North,350,12.0,17.0,75,0.00,,,0.00,0,Wunderground v.1.15,2013-01-14 14:35:00,
2013-01-14 07:40:00,7.6,1.3,30.30,NNW,346,16.0,16.0,75,0.00,,,0.00,7,Wunderground v.1.15,2013-01-14 14:40:00,
2013-01-14 07:45:00,7.7,1.4,30.30,NNW,342,7.0,16.0,75,0.00,,,0.00,14,Wunderground v.1.15,2013-01-14 14:45:00,
2013-01-14 07:50:00,7.8,1.5,30.30,NNW,347,9.0,15.0,75,0.00,,,0.00,16,Wunderground v.1.15,2013-01-14 14:50:00,
2013-01-14 07:55:00,7.9,1.6,30.29,NNW,333,12.0,15.0,75,0.00,,,0.00,19,Wunderground v.1.15,2013-01-14 14:55:00,
2013-01-14 08:00:00,8.0,1.7,30.30,NNW,338,10.0,15.0,75,0.00,,,0.00,23,Wunderground v.1.15,2013-01-14 15:00:00,
2013-01-14 08:05:00,8.0,1.7,30.29,NNW,340,13.0,15.0,75,0.00,,,0.00,28,Wunderground v.1.15,2013-01-14 15:05:00,
2013-01-14 08:10:00,8.0,1.7,30.29,NNW,336,12.0,15.0,75,0.00,,,0.00,28,Wunderground v.1.15,2013-01-14 15:10:00,
2013-01-14 08:15:00,8.0,1.7,30.29,NNW,334,9.0,15.0,75,0.00,,,0.00,33,Wunderground v.1.15,2013-01-14 15:15:00,
2013-01-14 08:20:00,8.0,1.7,30.30,North,349,6.0,11.0,75,0.00,,,0.00,39,Wunderground v.1.15,2013-01-14 15:20:00,
2013-01-14 08:25:00,8.1,1.8,30.30,NW,325,10.0,15.0,75,0.00,,,0.00,44,Wunderground v.1.15,2013-01-14 15:25:00,
2013-01-14 08:30:00,8.1,1.8,30.30,NNW,340,7.0,11.0,75,0.00,,,0.00,47,Wunderground v.1.15,2013-01-14 15:30:00,
2013-01-14 08:35:00,8.2,1.9,30.30,NNW,342,9.0,15.0,75,0.00,,,0.00,49,Wunderground v.1.15,2013-01-14 15:35:00,
2013-01-14 08:40:00,8.3,2.0,30.30,NNW,333,5.0,11.0,75,0.00,,,0.00,56,Wunderground v.1.15,2013-01-14 15:40:00,
2013-01-14 08:45:00,8.3,2.0,30.31,NNW,341,10.0,14.0,75,0.00,,,0.00,79,Wunderground v.1.15,2013-01-14 15:45:00,
2013-01-14 08:50:00,8.5,2.2,30.31,NW,325,12.0,12.0,75,0.00,,,0.00,111,Wunderground v.1.15,2013-01-14 15:50:00,
2013-01-14 08:56:00,8.7,2.4,30.30,NNW,329,10.0,15.0,75,0.00,,,0.00,137,Wunderground v.1.15,2013-01-14 15:56:00,
2013-01-14 09:01:00,8.9,2.3,30.30,NNW,338,12.0,13.0,74,0.00,,,0.00,144,Wunderground v.1.15,2013-01-14 16:01:00,
2013-01-14 09:06:00,9.0,2.4,30.30,North,349,14.0,15.0,74,0.00,,,0.00,151,Wunderground v.1.15,2013-01-14 16:06:00,
2013-01-14 09:11:00,9.1,2.2,30.30,NW,316,13.0,13.0,73,0.00,,,0.00,172,Wunderground v.1.15,2013-01-14 16:11:00,
2013-01-14 09:16:00,9.1,1.9,30.31,NNW,343,11.0,16.0,72,0.00,,,0.00,174,Wunderground v.1.15,2013-01-14 16:16:00,
2013-01-14 09:21:00,9.1,1.9,30.31,NW,323,10.0,14.0,72,0.00,,,0.00,200,Wunderground v.1.15,2013-01-14 16:21:00,
2013-01-14 09:26:00,9.4,1.9,30.31,NNW,341,11.0,14.0,71,0.00,,,0.00,223,Wunderground v.1.15,2013-01-14 16:26:00,
2013-01-14 09:31:00,9.8,2.3,30.31,NNW,340,11.0,12.0,71,0.00,,,0.00,276,Wunderground v.1.15,2013-01-14 16:31:00,
2013-01-14 09:36:00,10.2,2.4,30.31,NNW,345,13.0,15.0,70,0.00,,,0.00,332,Wunderground v.1.15,2013-01-14 16:36:00,
2013-01-14 09:41:00,10.7,2.5,30.31,North,349,7.0,14.0,69,0.00,,,0.00,345,Wunderground v.1.15,2013-01-14 16:41:00,
2013-01-14 09:46:00,11.1,2.6,30.31,NNW,337,10.0,15.0,68,0.00,,,0.00,380,Wunderground v.1.15,2013-01-14 16:46:00,
2013-01-14 09:51:00,11.3,2.5,30.31,NNW,336,10.0,14.0,67,0.00,,,0.00,434,Wunderground v.1.15,2013-01-14 16:51:00,
2013-01-14 09:56:00,11.7,2.5,30.31,NNW,337,11.0,17.0,66,0.00,,,0.00,434,Wunderground v.1.15,2013-01-14 16:56:00,
2013-01-14 10:01:00,11.8,2.6,30.31,North,355,7.0,12.0,66,0.00,,,0.00,360,Wunderground v.1.15,2013-01-14 17:01:00,
2013-01-14 10:06:00,12.2,3.0,30.31,North,355,11.0,13.0,66,0.00,,,0.00,462,Wunderground v.1.15,2013-01-14 17:06:00,
2013-01-14 10:11:00,12.3,2.4,30.31,NNE,13,11.0,15.0,64,0.00,,,0.00,485,Wunderground v.1.15,2013-01-14 17:11:00,
2013-01-14 10:16:00,12.3,2.4,30.32,NNW,348,11.0,16.0,64,0.00,,,0.00,297,Wunderground v.1.15,2013-01-14 17:16:00,
2013-01-14 10:21:00,12.1,2.2,30.32,North,360,9.0,14.0,64,0.00,,,0.00,257,Wunderground v.1.15,2013-01-14 17:21:00,
2013-01-14 10:26:00,11.8,2.0,30.32,North,355,12.0,15.0,64,0.00,,,0.00,262,Wunderground v.1.15,2013-01-14 17:26:00,
2013-01-14 10:31:00,11.4,1.6,30.32,NNW,348,13.0,17.0,64,0.00,,,0.00,257,Wunderground v.1.15,2013-01-14 17:31:00,
2013-01-14 10:36:00,10.9,1.1,30.32,NNW,333,11.0,17.0,64,0.00,,,0.00,218,Wunderground v.1.15,2013-01-14 17:36:00,
2013-01-14 10:41:00,10.9,1.1,30.32,NNW,336,13.0,16.0,64,0.00,,,0.00,399,Wunderground v.1.15,2013-01-14 17:41:00,
2013-01-14 10:46:00,12.0,2.5,30.32,NNW,337,15.0,18.0,65,0.00,,,0.00,554,Wunderground v.1.15,2013-01-14 17:46:00,
2013-01-14 10:51:00,12.4,2.2,30.32,NNW,333,13.0,17.0,63,0.00,,,0.00,548,Wunderground v.1.15,2013-01-14 17:51:00,
2013-01-14 10:56:00,12.5,2.3,30.32,NNW,338,14.0,17.0,63,0.00,,,0.00,538,Wunderground v.1.15,2013-01-14 17:56:00,
2013-01-14 11:01:00,12.3,2.1,30.32,NW,312,10.0,15.0,63,0.00,,,0.00,483,Wunderground v.1.15,2013-01-14 18:01:00,
2013-01-14 11:06:00,12.3,1.7,30.32,NNW,331,12.0,16.0,62,0.00,,,0.00,339,Wunderground v.1.15,2013-01-14 18:06:00,
2013-01-14 11:11:00,12.5,1.9,30.32,North,350,11.0,15.0,62,0.00,,,0.00,360,Wunderground v.1.15,2013-01-14 18:11:00,
2013-01-14 11:16:00,12.6,2.0,30.32,NNW,327,14.0,16.0,62,0.00,,,0.00,417,Wunderground v.1.15,2013-01-14 18:16:00,
2013-01-14 11:21:00,13.3,2.7,30.32,NNW,346,10.0,15.0,62,0.00,,,0.00,578,Wunderground v.1.15,2013-01-14 18:21:00,
2013-01-14 11:26:00,13.3,2.3,30.31,NW,319,13.0,16.0,61,0.00,,,0.00,438,Wunderground v.1.15,2013-01-14 18:26:00,
2013-01-14 11:32:00,13.9,2.6,30.31,NNE,13,12.0,14.0,60,0.00,,,0.00,519,Wunderground v.1.15,2013-01-14 18:32:00,
2013-01-14 11:37:00,14.3,2.6,30.32,NNW,337,11.0,15.0,59,0.00,,,0.00,496,Wunderground v.1.15,2013-01-14 18:37:00,
2013-01-14 11:42:00,14.2,2.1,30.32,NNW,335,11.0,15.0,58,0.00,,,0.00,534,Wunderground v.1.15,2013-01-14 18:42:00,
2013-01-14 11:47:00,14.2,2.1,30.31,NNW,338,12.0,15.0,58,0.00,,,0.00,547,Wunderground v.1.15,2013-01-14 18:47:00,
2013-01-14 11:52:00,14.3,2.2,30.31,NNW,341,12.0,14.0,58,0.00,,,0.00,545,Wunderground v.1.15,2013-01-14 18:52:00,
2013-01-14 11:57:00,14.3,2.2,30.31,North,355,11.0,14.0,58,0.00,,,0.00,552,Wunderground v.1.15,2013-01-14 18:57:00,
2013-01-14 12:02:00,14.9,2.4,30.31,North,10,6.0,13.0,57,0.00,,,0.00,561,Wunderground v.1.15,2013-01-14 19:02:00,
2013-01-14 12:07:00,15.2,2.7,30.30,North,9,7.0,13.0,57,0.00,,,0.00,557,Wunderground v.1.15,2013-01-14 19:07:00,
2013-01-14 12:12:00,15.2,2.3,30.30,North,360,10.0,14.0,56,0.00,,,0.00,559,Wunderground v.1.15,2013-01-14 19:12:00,
2013-01-14 12:17:00,14.7,1.0,30.30,North,5,11.0,14.0,54,0.00,,,0.00,559,Wunderground v.1.15,2013-01-14 19:17:00,
2013-01-14 12:22:00,14.9,2.0,30.30,NNE,14,10.0,10.0,56,0.00,,,0.00,561,Wunderground v.1.15,2013-01-14 19:22:00,
2013-01-14 12:27:00,15.2,1.9,30.30,North,355,9.0,14.0,55,0.00,,,0.00,559,Wunderground v.1.15,2013-01-14 19:27:00,
2013-01-14 12:32:00,15.0,1.3,30.30,North,10,11.0,15.0,54,0.00,,,0.00,559,Wunderground v.1.15,2013-01-14 19:32:00,
2013-01-14 12:37:00,15.2,1.5,30.30,NNW,341,7.0,15.0,54,0.00,,,0.00,557,Wunderground v.1.15,2013-01-14 19:37:00,
2013-01-14 12:42:00,15.1,1.0,30.29,NNE,12,10.0,15.0,53,0.00,,,0.00,557,Wunderground v.1.15,2013-01-14 19:42:00,
2013-01-14 12:47:00,15.1,1.0,30.29,North,355,5.0,15.0,53,0.00,,,0.00,555,Wunderground v.1.15,2013-01-14 19:47:00,
2013-01-14 12:52:00,15.1,0.6,30.29,NNE,15,12.0,14.0,52,0.00,,,0.00,554,Wunderground v.1.15,2013-01-14 19:52:00,
2013-01-14 12:57:00,15.1,1.0,30.29,NNW,342,15.0,15.0,53,0.00,,,0.00,552,Wunderground v.1.15,2013-01-14 19:57:00,
2013-01-14 13:02:00,15.3,1.2,30.29,NNW,338,10.0,14.0,53,0.00,,,0.00,548,Wunderground v.1.15,2013-01-14 20:02:00,
2013-01-14 13:07:00,15.5,1.8,30.29,NNW,336,10.0,14.0,54,0.00,,,0.00,547,Wunderground v.1.15,2013-01-14 20:07:00,
2013-01-14 13:12:00,15.9,1.4,30.29,North,355,5.0,11.0,52,0.00,,,0.00,543,Wunderground v.1.15,2013-01-14 20:12:00,
2013-01-14 13:17:00,16.2,1.6,30.29,NNE,13,9.0,14.0,52,0.00,,,0.00,540,Wunderground v.1.15,2013-01-14 20:17:00,
2013-01-14 13:22:00,16.3,0.9,30.29,North,350,10.0,13.0,50,0.00,,,0.00,534,Wunderground v.1.15,2013-01-14 20:22:00,
2013-01-14 13:27:00,16.5,1.5,30.29,NNW,342,11.0,13.0,51,0.00,,,0.00,529,Wunderground v.1.15,2013-01-14 20:27:00,
2013-01-14 13:32:00,16.5,1.1,30.29,North,5,6.0,13.0,50,0.00,,,0.00,526,Wunderground v.1.15,2013-01-14 20:32:00,
2013-01-14 13:37:00,16.3,1.3,30.29,NW,326,8.0,14.0,51,0.00,,,0.00,519,Wunderground v.1.15,2013-01-14 20:37:00,
2013-01-14 13:42:00,16.7,1.3,30.29,NNE,22,6.0,12.0,50,0.00,,,0.00,517,Wunderground v.1.15,2013-01-14 20:42:00,
2013-01-14 13:47:00,16.8,0.9,30.30,NNW,346,9.0,15.0,49,0.00,,,0.00,512,Wunderground v.1.15,2013-01-14 20:47:00,
2013-01-14 13:52:00,17.0,1.1,30.30,North,355,9.0,14.0,49,0.00,,,0.00,510,Wunderground v.1.15,2013-01-14 20:52:00,
2013-01-14 13:57:00,17.2,1.3,30.30,NNW,343,2.0,14.0,49,0.00,,,0.00,519,Wunderground v.1.15,2013-01-14 20:57:00,
2013-01-14 14:02:00,17.2,1.3,30.30,NNE,17,10.0,13.0,49,0.00,,,0.00,492,Wunderground v.1.15,2013-01-14 21:02:00,
2013-01-14 14:07:00,16.9,0.6,30.31,North,355,8.0,13.0,48,0.00,,,0.00,262,Wunderground v.1.15,2013-01-14 21:07:00,
2013-01-14 14:12:00,16.4,0.1,30.31,NE,38,4.0,12.0,48,0.00,,,0.00,211,Wunderground v.1.15,2013-01-14 21:12:00,
2013-01-14 14:17:00,16.2,0.4,30.31,North,350,7.0,12.0,49,0.00,,,0.00,193,Wunderground v.1.15,2013-01-14 21:17:00,
2013-01-14 14:22:00,16.1,0.7,30.31,North,355,7.0,9.0,50,0.00,,,0.00,176,Wunderground v.1.15,2013-01-14 21:22:00,
2013-01-14 14:27:00,15.9,0.1,30.32,NNE,13,9.0,13.0,49,0.00,,,0.00,193,Wunderground v.1.15,2013-01-14 21:27:00,
2013-01-14 14:32:00,15.9,-0.4,30.32,North,5,13.0,13.0,48,0.00,,,0.00,204,Wunderground v.1.15,2013-01-14 21:32:00,
2013-01-14 14:37:00,15.8,-0.5,30.32,NE,37,3.0,13.0,48,0.00,,,0.00,197,Wunderground v.1.15,2013-01-14 21:37:00,
2013-01-14 14:42:00,16.0,0.2,30.32,NNE,28,5.0,10.0,49,0.00,,,0.00,214,Wunderground v.1.15,2013-01-14 21:42:00,
2013-01-14 14:47:00,16.5,0.2,30.33,NNE,19,11.0,13.0,48,0.00,,,0.00,236,Wunderground v.1.15,2013-01-14 21:47:00,
2013-01-14 14:52:00,16.6,0.3,30.33,NNE,22,1.0,13.0,48,0.00,,,0.00,320,Wunderground v.1.15,2013-01-14 21:52:00,
2013-01-14 14:57:00,17.0,0.2,30.33,NNE,31,5.0,13.0,47,0.00,,,0.00,195,Wunderground v.1.15,2013-01-14 21:57:00,
2013-01-14 15:02:00,16.7,-0.1,30.33,North,355,9.0,10.0,47,0.00,,,0.00,225,Wunderground v.1.15,2013-01-14 22:02:00,
2013-01-14 15:07:00,17.0,-0.3,30.34,NNE,13,10.0,12.0,46,0.00,,,0.00,399,Wunderground v.1.15,2013-01-14 22:07:00,
2013-01-14 15:12:00,17.1,-0.2,30.34,NNE,25,6.0,11.0,46,0.00,,,0.00,411,Wunderground v.1.15,2013-01-14 22:12:00,
2013-01-14 15:17:00,17.3,-0.4,30.34,NE,44,5.0,12.0,45,0.00,,,0.00,380,Wunderground v.1.15,2013-01-14 22:17:00,
2013-01-14 15:22:00,17.8,0.0,30.35,North,360,7.0,12.0,45,0.00,,,0.00,374,Wunderground v.1.15,2013-01-14 22:22:00,
2013-01-14 15:27:00,17.5,-0.7,30.35,NNE,22,4.0,12.0,44,0.00,,,0.00,362,Wunderground v.1.15,2013-01-14 22:27:00,
2013-01-14 15:32:00,16.9,-1.3,30.35,NE,41,10.0,12.0,44,0.00,,,0.00,128,Wunderground v.1.15,2013-01-14 22:32:00,
2013-01-14 15:37:00,16.3,-1.8,30.35,North,5,10.0,14.0,44,0.00,,,0.00,265,Wunderground v.1.15,2013-01-14 22:37:00,
2013-01-14 15:43:00,16.4,-1.3,30.35,NE,34,10.0,10.0,45,0.00,,,0.00,116,Wunderground v.1.15,2013-01-14 22:43:00,
2013-01-14 15:48:00,16.2,-1.9,30.36,NNE,33,4.0,12.0,44,0.00,,,0.00,278,Wunderground v.1.15,2013-01-14 22:48:00,
2013-01-14 15:53:00,16.4,-1.3,30.36,NNE,22,10.0,11.0,45,0.00,,,0.00,276,Wunderground v.1.15,2013-01-14 22:53:00,
2013-01-14 15:58:00,16.7,-1.0,30.36,North,9,6.0,12.0,45,0.00,,,0.00,220,Wunderground v.1.15,2013-01-14 22:58:00,
2013-01-14 16:03:00,16.8,-1.4,30.36,North,5,9.0,10.0,44,0.00,,,0.00,209,Wunderground v.1.15,2013-01-14 23:03:00,
2013-01-14 16:08:00,17.2,-1.0,30.36,North,11,10.0,11.0,44,0.00,,,0.00,206,Wunderground v.1.15,2013-01-14 23:08:00,
2013-01-14 16:13:00,17.0,-1.7,30.37,NNE,13,11.0,13.0,43,0.00,,,0.00,190,Wunderground v.1.15,2013-01-14 23:13:00,
2013-01-14 16:18:00,16.6,-2.0,30.37,NE,38,5.0,14.0,43,0.00,,,0.00,171,Wunderground v.1.15,2013-01-14 23:18:00,
2013-01-14 16:23:00,16.5,-2.1,30.38,North,11,0.0,14.0,43,0.00,,,0.00,162,Wunderground v.1.15,2013-01-14 23:23:00,
2013-01-14 16:29:00,16.5,-2.1,30.38,North,5,9.0,14.0,43,0.00,,,0.00,137,Wunderground v.1.15,2013-01-14 23:29:00,
2013-01-14 16:34:00,16.5,-1.7,30.38,North,355,6.0,11.0,44,0.00,,,0.00,118,Wunderground v.1.15,2013-01-14 23:34:00,
2013-01-14 16:39:00,16.7,-1.5,30.39,NNE,18,6.0,12.0,44,0.00,,,0.00,100,Wunderground v.1.15,2013-01-14 23:39:00,
2013-01-14 16:44:00,16.6,-1.6,30.39,North,360,8.0,12.0,44,0.00,,,0.00,77,Wunderground v.1.15,2013-01-14 23:44:00,
2013-01-14 16:49:00,16.4,-1.7,30.39,North,9,9.0,13.0,44,0.00,,,0.00,60,Wunderground v.1.15,2013-01-14 23:49:00,
2013-01-14 16:54:00,16.2,-1.9,30.40,North,360,4.0,9.0,44,0.00,,,0.00,46,Wunderground v.1.15,2013-01-14 23:54:00,
2013-01-14 16:59:00,15.9,-2.7,30.40,North,5,7.0,12.0,43,0.00,,,0.00,33,Wunderground v.1.15,2013-01-14 23:59:00,
2013-01-14 17:04:00,15.6,-3.0,30.40,NNE,30,11.0,14.0,43,0.00,,,0.00,25,Wunderground v.1.15,2013-01-15 00:04:00,
2013-01-14 17:09:00,15.4,-3.1,30.41,NE,34,4.0,14.0,43,0.00,,,0.00,18,Wunderground v.1.15,2013-01-15 00:09:00,
2013-01-14 17:14:00,15.2,-3.3,30.41,North,9,6.0,8.0,43,0.00,,,0.00,14,Wunderground v.1.15,2013-01-15 00:14:00,
2013-01-14 17:19:00,14.6,-3.4,30.41,North,351,2.0,10.0,44,0.00,,,0.00,11,Wunderground v.1.15,2013-01-15 00:19:00,
2013-01-14 17:24:00,14.1,-3.9,30.41,North,5,0.0,4.0,44,0.00,,,0.00,9,Wunderground v.1.15,2013-01-15 00:24:00,
2013-01-14 17:29:00,13.7,-4.2,30.41,NNE,13,0.0,7.0,44,0.00,,,0.00,7,Wunderground v.1.15,2013-01-15 00:29:00,
2013-01-14 17:34:00,13.3,-4.6,30.42,NNE,13,0.0,5.0,44,0.00,,,0.00,5,Wunderground v.1.15,2013-01-15 00:34:00,
2013-01-14 17:39:00,12.9,-5.0,30.42,NNE,13,0.0,5.0,44,0.00,,,0.00,0,Wunderground v.1.15,2013-01-15 00:39:00,
2013-01-14 17:44:00,12.7,-5.1,30.42,NNE,13,0.0,4.0,44,0.00,,,0.00,0,Wunderground v.1.15,2013-01-15 00:44:00,
2013-01-14 17:49:00,12.6,-5.2,30.42,NNE,21,4.0,7.0,44,0.00,,,0.00,0,Wunderground v.1.15,2013-01-15 00:49:00,
2013-01-14 17:54:00,12.2,-5.6,30.42,NNE,14,6.0,7.0,44,0.00,,,0.00,0,Wunderground v.1.15,2013-01-15 00:54:00,
2013-01-14 17:59:00,12.0,-5.3,30.43,NNE,21,6.0,7.0,45,0.00,,,0.00,0,Wunderground v.1.15,2013-01-15 00:59:00,
2013-01-14 18:04:00,11.8,-5.5,30.43,North,360,10.0,10.0,45,0.00,,,0.00,0,Wunderground v.1.15,2013-01-15 01:04:00,
2013-01-14 18:09:00,11.6,-5.2,30.43,NNE,13,4.0,10.0,46,0.00,,,0.00,0,Wunderground v.1.15,2013-01-15 01:09:00,
2013-01-14 18:14:00,11.3,-5.5,30.43,North,5,7.0,9.0,46,0.00,,,0.00,0,Wunderground v.1.15,2013-01-15 01:14:00,
2013-01-14 18:19:00,10.9,-5.9,30.44,North,5,3.0,9.0,46,0.00,,,0.00,0,Wunderground v.1.15,2013-01-15 01:19:00,
2013-01-14 18:24:00,10.4,-5.9,30.44,North,5,4.0,6.0,47,0.00,,,0.00,0,Wunderground v.1.15,2013-01-15 01:24:00,
2013-01-14 18:29:00,10.0,-6.3,30.44,North,5,0.0,6.0,47,0.00,,,0.00,0,Wunderground v.1.15,2013-01-15 01:29:00,
2013-01-14 18:34:00,9.7,-6.5,30.44,North,360,0.0,5.0,47,0.00,,,0.00,0,Wunderground v.1.15,2013-01-15 01:34:00,
2013-01-14 18:39:00,9.2,-7.0,30.44,North,360,2.0,5.0,47,0.00,,,0.00,0,Wunderground v.1.15,2013-01-15 01:39:00,
2013-01-14 18:44:00,8.8,-6.9,30.44,North,360,3.0,5.0,48,0.00,,,0.00,0,Wunderground v.1.15,2013-01-15 01:44:00,
2013-01-14 18:49:00,8.7,-7.0,30.45,North,5,4.0,5.0,48,0.00,,,0.00,0,Wunderground v.1.15,2013-01-15 01:49:00,
2013-01-14 18:54:00,8.9,-7.3,30.45,NNE,13,4.0,7.0,47,0.00,,,0.00,0,Wunderground v.1.15,2013-01-15 01:54:00,
2013-01-14 18:59:00,9.0,-6.7,30.45,North,360,5.0,10.0,48,0.00,,,0.00,0,Wunderground v.1.15,2013-01-15 01:59:00,
2013-01-14 19:04:00,9.4,-6.8,30.45,North,11,4.0,10.0,47,0.00,,,0.00,0,Wunderground v.1.15,2013-01-15 02:04:00,
2013-01-14 19:09:00,9.4,-6.8,30.45,NNE,12,6.0,10.0,47,0.00,,,0.00,0,Wunderground v.1.15,2013-01-15 02:09:00,
2013-01-14 19:14:00,9.4,-7.2,30.45,NNE,12,6.0,7.0,46,0.00,,,0.00,0,Wunderground v.1.15,2013-01-15 02:14:00,
2013-01-14 19:19:00,9.2,-7.4,30.45,NNE,12,4.0,7.0,46,0.00,,,0.00,0,Wunderground v.1.15,2013-01-15 02:19:00,
2013-01-14 19:24:00,9.1,-7.5,30.46,NNE,12,4.0,6.0,46,0.00,,,0.00,0,Wunderground v.1.15,2013-01-15 02:24:00,
2013-01-14 19:29:00,8.5,-7.6,30.46,North,11,4.0,6.0,47,0.00,,,0.00,0,Wunderground v.1.15,2013-01-15 02:29:00,
2013-01-14 19:34:00,7.4,-8.2,30.46,North,11,3.0,5.0,48,0.00,,,0.00,0,Wunderground v.1.15,2013-01-15 02:34:00,
2013-01-14 19:39:00,6.6,-8.1,30.47,North,360,5.0,6.0,50,0.00,,,0.00,0,Wunderground v.1.15,2013-01-15 02:39:00,
2013-01-14 19:44:00,6.8,-7.5,30.47,North,360,6.0,11.0,51,0.00,,,0.00,0,Wunderground v.1.15,2013-01-15 02:44:00,
2013-01-14 19:50:00,6.9,-7.8,30.47,North,360,5.0,6.0,50,0.00,,,0.00,0,Wunderground v.1.15,2013-01-15 02:50:00,
2013-01-14 19:55:00,6.3,-8.0,30.47,North,360,7.0,7.0,51,0.00,,,0.00,0,Wunderground v.1.15,2013-01-15 02:55:00,
2013-01-14 20:00:00,6.1,-8.2,30.47,North,5,7.0,7.0,51,0.00,,,0.00,0,Wunderground v.1.15,2013-01-15 03:00:00,
2013-01-14 20:05:00,7.7,-6.7,30.47,North,5,5.0,12.0,51,0.00,,,0.00,0,Wunderground v.1.15,2013-01-15 03:05:00,
2013-01-14 20:10:00,8.3,-7.0,30.47,North,355,4.0,6.0,49,0.00,,,0.00,0,Wunderground v.1.15,2013-01-15 03:10:00,
2013-01-14 20:15:00,8.1,-7.6,30.47,North,360,2.0,6.0,48,0.00,,,0.00,0,Wunderground v.1.15,2013-01-15 03:15:00,
2013-01-14 20:20:00,8.1,-7.6,30.48,North,360,4.0,5.0,48,0.00,,,0.00,0,Wunderground v.1.15,2013-01-15 03:20:00,
2013-01-14 20:25:00,7.8,-7.9,30.48,North,360,5.0,6.0,48,0.00,,,0.00,0,Wunderground v.1.15,2013-01-15 03:25:00,
2013-01-14 20:30:00,7.8,-7.4,30.49,NNE,13,6.0,7.0,49,0.00,,,0.00,0,Wunderground v.1.15,2013-01-15 03:30:00,
2013-01-14 20:35:00,7.5,-7.7,30.48,North,355,5.0,9.0,49,0.00,,,0.00,0,Wunderground v.1.15,2013-01-15 03:35:00,
2013-01-14 20:40:00,8.3,-7.4,30.48,North,355,7.0,7.0,48,0.00,,,0.00,0,Wunderground v.1.15,2013-01-15 03:40:00,
2013-01-14 20:45:00,8.4,-7.7,30.49,North,355,4.0,11.0,47,0.00,,,0.00,0,Wunderground v.1.15,2013-01-15 03:45:00,
2013-01-14 20:50:00,8.7,-7.5,30.49,North,355,6.0,8.0,47,0.00,,,0.00,0,Wunderground v.1.15,2013-01-15 03:50:00,
2013-01-14 20:55:00,8.6,-8.0,30.49,North,355,5.0,11.0,46,0.00,,,0.00,0,Wunderground v.1.15,2013-01-15 03:55:00,
2013-01-14 21:00:00,8.3,-7.8,30.50,NNW,344,10.0,10.0,47,0.00,,,0.00,0,Wunderground v.1.15,2013-01-15 04:00:00,
2013-01-14 21:05:00,8.6,-8.0,30.50,NNW,345,3.0,11.0,46,0.00,,,0.00,0,Wunderground v.1.15,2013-01-15 04:05:00,
2013-01-14 21:10:00,8.5,-8.5,30.50,North,360,2.0,5.0,45,0.00,,,0.00,0,Wunderground v.1.15,2013-01-15 04:10:00,
2013-01-14 21:15:00,8.4,-8.6,30.50,North,355,4.0,9.0,45,0.00,,,0.00,0,Wunderground v.1.15,2013-01-15 04:15:00,
2013-01-14 21:20:00,8.5,-8.5,30.50,NNW,327,6.0,6.0,45,0.00,,,0.00,0,Wunderground v.1.15,2013-01-15 04:20:00,
2013-01-14 21:25:00,8.2,-8.8,30.50,NNW,335,4.0,7.0,45,0.00,,,0.00,0,Wunderground v.1.15,2013-01-15 04:25:00,
2013-01-14 21:30:00,7.8,-8.7,30.50,North,355,4.0,5.0,46,0.00,,,0.00,0,Wunderground v.1.15,2013-01-15 04:30:00,
2013-01-14 21:35:00,7.5,-9.0,30.50,North,360,4.0,6.0,46,0.00,,,0.00,0,Wunderground v.1.15,2013-01-15 04:35:00,
2013-01-14 21:40:00,7.3,-9.2,30.50,North,9,4.0,5.0,46,0.00,,,0.00,0,Wunderground v.1.15,2013-01-15 04:40:00,
2013-01-14 21:45:00,7.0,-9.5,30.50,North,9,4.0,5.0,46,0.00,,,0.00,0,Wunderground v.1.15,2013-01-15 04:45:00,
2013-01-14 21:50:00,6.7,-9.3,30.49,North,9,4.0,4.0,47,0.00,,,0.00,0,Wunderground v.1.15,2013-01-15 04:50:00,
2013-01-14 21:55:00,6.6,-9.8,30.49,North,9,4.0,5.0,46,0.00,,,0.00,0,Wunderground v.1.15,2013-01-15 04:55:00,
2013-01-14 22:01:00,6.9,-9.1,30.49,North,9,4.0,4.0,47,0.00,,,0.00,0,Wunderground v.1.15,2013-01-15 05:01:00,
2013-01-14 22:03:00,7.0,-9.5,30.49,North,9,3.0,5.0,46,0.00,,,0.00,0,Wunderground v.1.15,2013-01-15 05:03:00,
2013-01-14 22:08:00,6.9,-9.6,30.49,North,9,1.0,5.0,46,0.00,,,0.00,0,Wunderground v.1.15,2013-01-15 05:08:00,
2013-01-14 22:13:00,6.3,-9.7,30.49,North,9,2.0,3.0,47,0.00,,,0.00,0,Wunderground v.1.15,2013-01-15 05:13:00,
2013-01-14 22:18:00,5.4,-10.5,30.49,North,9,3.0,6.0,47,0.00,,,0.00,0,Wunderground v.1.15,2013-01-15 05:18:00,
2013-01-14 22:23:00,4.5,-10.5,30.49,North,9,6.0,9.0,49,0.00,,,0.00,0,Wunderground v.1.15,2013-01-15 05:23:00,
2013-01-14 22:28:00,4.0,-10.5,30.49,North,360,6.0,9.0,50,0.00,,,0.00,0,Wunderground v.1.15,2013-01-15 05:28:00,
2013-01-14 22:33:00,4.1,-10.1,30.49,North,360,6.0,7.0,51,0.00,,,0.00,0,Wunderground v.1.15,2013-01-15 05:33:00,
2013-01-14 22:38:00,4.7,-9.5,30.49,North,360,5.0,9.0,51,0.00,,,0.00,0,Wunderground v.1.15,2013-01-15 05:38:00,
2013-01-14 22:43:00,4.9,-9.7,30.50,North,360,5.0,7.0,50,0.00,,,0.00,0,Wunderground v.1.15,2013-01-15 05:43:00,
2013-01-14 22:48:00,5.5,-9.2,30.49,North,9,4.0,7.0,50,0.00,,,0.00,0,Wunderground v.1.15,2013-01-15 05:48:00,
2013-01-14 22:53:00,6.5,-9.1,30.49,North,9,4.0,6.0,48,0.00,,,0.00,0,Wunderground v.1.15,2013-01-15 05:53:00,
2013-01-14 22:58:00,7.0,-9.0,30.49,North,9,4.0,7.0,47,0.00,,,0.00,0,Wunderground v.1.15,2013-01-15 05:58:00,
2013-01-14 23:03:00,6.9,-9.1,30.50,North,9,4.0,5.0,47,0.00,,,0.00,0,Wunderground v.1.15,2013-01-15 06:03:00,
2013-01-14 23:08:00,6.8,-9.6,30.49,North,9,3.0,5.0,46,0.00,,,0.00,0,Wunderground v.1.15,2013-01-15 06:08:00,
2013-01-14 23:13:00,7.1,-9.4,30.49,North,9,3.0,5.0,46,0.00,,,0.00,0,Wunderground v.1.15,2013-01-15 06:13:00,
2013-01-14 23:18:00,7.3,-9.6,30.49,North,9,3.0,5.0,45,0.00,,,0.00,0,Wunderground v.1.15,2013-01-15 06:18:00,
2013-01-14 23:23:00,7.3,-9.6,30.49,North,9,3.0,4.0,45,0.00,,,0.00,0,Wunderground v.1.15,2013-01-15 06:23:00,
2013-01-14 23:28:00,7.1,-9.8,30.49,North,9,1.0,4.0,45,0.00,,,0.00,0,Wunderground v.1.15,2013-01-15 06:28:00,
2013-01-14 23:33:00,6.2,-10.6,30.50,North,9,4.0,4.0,45,0.00,,,0.00,0,Wunderground v.1.15,2013-01-15 06:33:00,
2013-01-14 23:38:00,5.1,-10.8,30.50,North,9,2.0,4.0,47,0.00,,,0.00,0,Wunderground v.1.15,2013-01-15 06:38:00,
2013-01-14 23:44:00,4.1,-11.3,30.50,North,9,2.0,4.0,48,0.00,,,0.00,0,Wunderground v.1.15,2013-01-15 06:44:00,
2013-01-14 23:49:00,4.3,-10.3,30.50,North,9,3.0,4.0,50,0.00,,,0.00,0,Wunderground v.1.15,2013-01-15 06:49:00,
2013-01-14 23:54:00,5.1,-10.4,30.50,NNE,13,2.0,4.0,48,0.00,,,0.00,0,Wunderground v.1.15,2013-01-15 06:54:00,
2013-01-14 23:59:00,5.7,-9.8,30.50,NNE,13,0.0,4.0,48,0.00,,,0.00,0,Wunderground v.1.15,2013-01-15 06:59:00,